Tracking 35331 objects as of 16-Sep-2026
HD Live streaming from Space Station
objects crossing your sky now

RIDESHARE ADAPTER

Track RIDESHARE ADAPTER now!
10-day predictions


NORAD ID: 47435
Int'l Code: 2021-006Y
Launch date: January 24, 2021
Source: United States (US)
Launch site: AIR FORCE EASTERN TEST RANGE (AFETR)
Your satellite tracking list
Your tracking list is empty




NASA's NSSDC Master Catalog

Two Line Element Set (TLE):
1 47435U 21006Y   26258.57151273  .00011915  00000-0  22607-3 0  9993
2 47435  97.2107 312.3532 0006803 175.2253 184.9064 15.48432673314128
Source of the keplerian elements: AFSPC